TimeCEST,TemperatureF,Dew PointF,Humidity,Sea Level PressureIn,VisibilityMPH,Wind Direction,Wind SpeedMPH,Gust SpeedMPH,PrecipitationIn,Events,Conditions,WindDirDegrees,DateUTC
12:00 AM,64.4,41.0,42,30.01,6.2,North,2.3,-,N/A,,Partly Cloudy,350,2013-05-13 22:00:00
12:30 AM,68.0,44.6,43,30.01,6.2,SSW,5.8,-,N/A,,Partly Cloudy,200,2013-05-13 22:30:00
1:00 AM,68.0,48.2,49,30.01,6.2,SSW,19.6,-,N/A,,Partly Cloudy,210,2013-05-13 23:00:00
1:30 AM,62.6,55.4,77,30.01,6.2,South,19.6,-,N/A,,Light Drizzle,190,2013-05-13 23:30:00
2:00 AM,60,52,66,29.98,19,SSE,12.7,,,Rain,Light Drizzle,160,2013-05-14 00:00:00
2:00 AM,60.8,53.6,77,30.01,6.2,South,12.7,-,N/A,,Light Drizzle,170,2013-05-14 00:00:00
2:30 AM,62.6,51.8,68,30.01,6.2,South,6.9,-,N/A,,Partly Cloudy,170,2013-05-14 00:30:00
3:00 AM,60.8,51.8,72,30.01,6.2,WNW,4.6,-,N/A,,Partly Cloudy,290,2013-05-14 01:00:00
3:30 AM,60.8,51.8,72,29.98,6.2,North,4.6,-,N/A,,Partly Cloudy,360,2013-05-14 01:30:00
4:00 AM,60.8,51.8,72,29.98,6.2,NNE,3.5,-,N/A,,Partly Cloudy,30,2013-05-14 02:00:00
4:30 AM,60.8,51.8,72,29.95,6.2,North,8.1,-,N/A,,Partly Cloudy,360,2013-05-14 02:30:00
5:00 AM,60.8,51.8,72,29.95,6.2,North,3.5,-,N/A,,Partly Cloudy,360,2013-05-14 03:00:00
5:30 AM,60.8,50.0,68,29.95,6.2,WNW,4.6,-,N/A,,Partly Cloudy,290,2013-05-14 03:30:00
6:00 AM,59.0,51.8,77,29.95,6.2,Variable,2.3,-,N/A,,Partly Cloudy,0,2013-05-14 04:00:00
6:30 AM,59.0,51.8,77,29.95,6.2,SE,4.6,-,N/A,,Partly Cloudy,130,2013-05-14 04:30:00
7:00 AM,59.0,53.6,82,29.92,6.2,Variable,2.3,-,N/A,,Partly Cloudy,0,2013-05-14 05:00:00
7:30 AM,59.0,53.6,82,29.95,-9999.0,SE,2.3,-,N/A,,Clear,130,2013-05-14 05:30:00
8:00 AM,58,51,71,29.91,19,ESE,4.6,,,,Scattered Clouds,120,2013-05-14 06:00:00
8:00 AM,59.0,53.6,82,29.92,-9999.0,ESE,4.6,-,N/A,,Clear,120,2013-05-14 06:00:00
8:30 AM,60.8,53.6,77,29.92,-9999.0,Variable,2.3,-,N/A,,Clear,0,2013-05-14 06:30:00
9:00 AM,62.6,51.8,68,29.95,-9999.0,SE,1.2,-,N/A,,Clear,140,2013-05-14 07:00:00
9:30 AM,64.4,51.8,64,29.92,-9999.0,SE,4.6,-,N/A,,Clear,130,2013-05-14 07:30:00
10:00 AM,64.4,51.8,64,29.95,-9999.0,SSE,8.1,-,N/A,,Clear,150,2013-05-14 08:00:00
10:30 AM,64.4,51.8,64,29.92,-9999.0,SE,6.9,-,N/A,,Clear,140,2013-05-14 08:30:00
11:00 AM,64.4,51.8,64,29.92,6.2,SSE,4.6,-,N/A,,Partly Cloudy,150,2013-05-14 09:00:00
12:00 PM,66.2,53.6,64,29.92,6.2,South,5.8,17.3,N/A,,Partly Cloudy,180,2013-05-14 10:00:00
12:30 PM,64.4,53.6,68,29.92,6.2,SSE,6.9,-,N/A,,Partly Cloudy,150,2013-05-14 10:30:00
1:00 PM,64.4,53.6,68,29.89,6.2,South,5.8,-,N/A,,Partly Cloudy,180,2013-05-14 11:00:00
1:30 PM,66.2,53.6,64,29.89,6.2,South,4.6,-,N/A,,Partly Cloudy,190,2013-05-14 11:30:00
2:00 PM,69,53,46,29.79,11,South,4.6,,,,Scattered Clouds,180,2013-05-14 12:00:00
2:00 PM,68.0,53.6,60,29.86,6.2,South,4.6,18.4,N/A,,Partly Cloudy,180,2013-05-14 12:00:00
2:30 PM,69.8,53.6,56,29.86,6.2,South,5.8,-,N/A,,Partly Cloudy,180,2013-05-14 12:30:00
3:00 PM,71.6,51.8,50,29.83,6.2,South,8.1,-,N/A,,Partly Cloudy,190,2013-05-14 13:00:00
3:30 PM,73.4,51.8,47,29.80,6.2,South,6.9,20.7,N/A,,Scattered Clouds,180,2013-05-14 13:30:00
4:00 PM,69.8,41.0,35,29.80,6.2,North,11.5,-,N/A,,Scattered Clouds,360,2013-05-14 14:00:00
4:30 PM,59.0,51.8,77,29.80,6.2,North,15.0,-,N/A,Rain-Thunderstorm,Thunderstorms and Rain,350,2013-05-14 14:30:00
5:00 PM,57.2,51.8,82,29.80,5.6,East,5.8,-,N/A,Rain-Thunderstorm,Light Thunderstorms and Rain,90,2013-05-14 15:00:00
5:30 PM,60.8,53.6,77,29.80,5.6,SSE,4.6,-,N/A,Thunderstorm,Thunderstorm,160,2013-05-14 15:30:00
6:00 PM,62.6,53.6,72,29.74,6.2,Variable,2.3,-,N/A,,Scattered Clouds,0,2013-05-14 16:00:00
6:30 PM,62.6,51.8,68,29.74,6.2,SSE,9.2,-,N/A,,Scattered Clouds,150,2013-05-14 16:30:00
7:00 PM,64.4,48.2,56,29.71,6.2,SSE,6.9,-,N/A,,Partly Cloudy,160,2013-05-14 17:00:00
7:30 PM,64.4,50.0,59,29.71,6.2,SSE,9.2,-,N/A,,Partly Cloudy,160,2013-05-14 17:30:00
8:00 PM,62,47,49,29.68,19,South,10.4,,,,Partly Cloudy,170,2013-05-14 18:00:00
8:00 PM,64.4,48.2,56,29.71,6.2,South,10.4,-,N/A,,Partly Cloudy,170,2013-05-14 18:00:00
9:00 PM,60.8,51.8,72,29.71,6.2,South,11.5,-,N/A,Rain,Light Rain Showers,180,2013-05-14 19:00:00
9:30 PM,60.8,50.0,68,29.74,6.2,SW,21.9,-,N/A,,Mostly Cloudy,230,2013-05-14 19:30:00
9:35 PM,57.2,51.8,82,29.71,6.2,South,19.6,-,N/A,Rain,Rain Showers,190,2013-05-14 19:35:00
10:00 PM,57.2,51.8,82,29.74,6.2,SSW,5.8,-,N/A,Rain,Light Rain,200,2013-05-14 20:00:00
10:30 PM,57.2,51.8,82,29.74,6.2,South,10.4,-,N/A,Rain,Light Rain,180,2013-05-14 20:30:00
11:00 PM,57.2,51.8,82,29.74,6.2,SW,4.6,-,N/A,,Mostly Cloudy,220,2013-05-14 21:00:00
11:30 PM,57.2,51.8,82,29.74,6.2,SW,9.2,-,N/A,,Mostly Cloudy,230,2013-05-14 21:30:00